TimeEST,TemperatureF,Dew PointF,Humidity,Sea Level PressureIn,VisibilityMPH,Wind Direction,Wind SpeedMPH,Gust SpeedMPH,PrecipitationIn,Events,Conditions,WindDirDegrees,DateUTC
12:56 AM,25.0,19.0,78,29.91,-9999.0,NNE,9.2,-,N/A,,Unknown,20,2013-02-27 05:56:00
1:56 AM,27.0,21.0,78,29.89,-9999.0,NE,15.0,-,N/A,,Unknown,40,2013-02-27 06:56:00
2:56 AM,28.0,23.0,81,29.86,-9999.0,NNE,15.0,-,N/A,,Unknown,30,2013-02-27 07:56:00
3:56 AM,30.0,24.1,79,29.85,-9999.0,NNE,19.6,-,N/A,,Unknown,30,2013-02-27 08:56:00
4:56 AM,30.0,25.0,82,29.83,-9999.0,NNE,19.6,-,N/A,,Unknown,30,2013-02-27 09:56:00
5:56 AM,30.9,25.0,79,29.83,-9999.0,NNE,23.0,-,N/A,,Unknown,30,2013-02-27 10:56:00
6:56 AM,30.9,25.0,79,29.82,-9999.0,NE,18.4,-,N/A,,Unknown,40,2013-02-27 11:56:00
7:56 AM,30.9,25.0,79,29.82,-9999.0,NE,15.0,-,N/A,,Unknown,40,2013-02-27 12:56:00
8:56 AM,30.0,26.1,85,29.81,-9999.0,NNE,17.3,-,0.02,,Unknown,30,2013-02-27 13:56:00
9:56 AM,30.0,26.1,85,29.82,-9999.0,NE,16.1,-,0.02,,Unknown,40,2013-02-27 14:56:00
10:56 AM,32.0,26.1,79,29.81,-9999.0,NE,16.1,-,0.01,,Unknown,40,2013-02-27 15:56:00
11:56 AM,30.9,26.1,82,29.79,-9999.0,NNE,21.9,-,N/A,,Unknown,30,2013-02-27 16:56:00
12:56 PM,32.0,27.0,82,29.79,-9999.0,NE,20.7,-,N/A,,Unknown,40,2013-02-27 17:56:00
1:56 PM,32.0,28.0,85,29.78,-9999.0,NNE,18.4,-,0.01,,Unknown,20,2013-02-27 18:56:00
2:56 PM,32.0,28.9,88,29.78,-9999.0,NNE,18.4,-,N/A,,Unknown,30,2013-02-27 19:56:00
3:56 PM,32.0,28.9,88,29.79,-9999.0,NNE,21.9,-,0.01,,Unknown,30,2013-02-27 20:56:00
4:56 PM,32.0,28.9,88,29.80,-9999.0,NNE,23.0,-,0.03,,Unknown,30,2013-02-27 21:56:00
5:56 PM,33.1,28.9,85,29.81,-9999.0,NNE,25.3,-,0.02,,Unknown,20,2013-02-27 22:56:00
6:56 PM,33.1,28.9,85,29.83,-9999.0,NNE,19.6,31.1,0.02,,Unknown,20,2013-02-27 23:56:00
7:56 PM,33.1,28.9,85,29.84,-9999.0,NNE,18.4,26.5,N/A,,Unknown,20,2013-02-28 00:56:00
8:56 PM,33.1,28.9,85,29.85,-9999.0,NNE,15.0,-,N/A,,Unknown,20,2013-02-28 01:56:00
9:56 PM,32.0,28.9,88,29.86,-9999.0,NNE,21.9,29.9,0.04,,Unknown,20,2013-02-28 02:56:00
10:56 PM,32.0,28.0,85,29.86,-9999.0,NNE,20.7,29.9,0.01,,Unknown,20,2013-02-28 03:56:00
11:56 PM,32.0,28.0,85,29.86,-9999.0,NNE,21.9,31.1,0.01,,Unknown,20,2013-02-28 04:56:00